Regional Weather Roundup
Issued by NWS

Home | Current Version | Previous Version | Graphics & Text | Print | Product List | Glossary On
Versions: 1 2 3 4 5 6 7 8 9 10 11 12 13 14 15 16 17 18 19 20 21 22 23 24 25 26 27 28 29 30 31 32 33 34 35 36 37 38 39 40 41 42 43 44 45 46 47 48 49 50
403
ASUS45 KBOU 090707
RWRCO

WEATHER ROUNDUP FOR COLORADO
NATIONAL WEATHER SERVICE DENVER/BOULDER CO
1200 AM MST TUE FEB 09 2016

NOTE: "FAIR" INDICATES FEW OR NO CLOUDS BELOW 12000 FEET WITH NO
SIGNIFICANT WEATHER AND/OR OBSTRUCTIONS TO VISIBILITY.

COZ001>005-013-030-031-090800-
...NORTHWEST COLORADO...

CITY           SKY/WX    TMP DP  RH WIND       PRES   REMARKS
CRAIG          CLOUDY    -1  -6  79 CALM      30.54S
HAYDEN         CLOUDY    14   7  73 E10       30.52R WCI   1
MEEKER         CLOUDY    15  11  83 CALM      30.53R
MOUNT WERNER   NOT AVBL
STEAMBOAT SPGS CLOUDY    15  13  92 E5        30.53S WCI   7
WALDEN         CLOUDY    12   9  85 SE7       30.48S WCI   2
$$

COZ006>008-011-090800-
...WEST CENTRAL VALLEYS...

CITY           SKY/WX    TMP DP  RH WIND       PRES   REMARKS
GRAND JUNCTION CLOUDY    19  18  95 E6        30.53S WCI  11
MONTROSE       CLOUDY    19  14  81 SE9       30.54S WCI   8
EAGLE          CLOUDY    16  14  93 CALM      30.56S
RIFLE          CLOUDY    20  13  74 CALM      30.54R
DELTA          CLOUDY    26  21  83 E5        30.54S WCI  20
NUCLA          CLOUDY    27  21  80 E8        30.52S WCI  18
$$

COZ017>023-064>068-090800-
...SOUTHWEST COLORADO...

CITY           SKY/WX    TMP DP  RH WIND       PRES   REMARKS
DURANGO        CLOUDY    21  16  81 CALM      30.42F
CORTEZ         CLOUDY    28  19  69 E7        30.44F WCI  21
PAGOSA SPRINGS CLOUDY    22  20  94 CALM      30.44S
TELLURIDE      NOT AVBL
WOLF CREEK PAS CLOUDY    25  -2  30 N3        30.55R
$$

COZ009-010-012-014-032>034-037-058>063-090800-
...CENTRAL COLORADO...

CITY           SKY/WX    TMP DP  RH WIND       PRES   REMARKS
ASPEN          CLOUDY    20  13  74 SW8       30.50F WCI  10
BUENA VISTA    CLOUDY    33  17  51 NW18G24   30.42S WCI  22
COPPER MTN     CLOUDY    23  10  58 W16G22    30.50S WCI  10
BERTHOUD PASS  FAIR      10   0  61 NW21G32   30.46F WCI  -9
COTTONWOOD PAS CLOUDY    34   9  35 W13G28    30.43F WCI  25
GUNNISON       CLOUDY     0 -20  38 CALM      30.56S
KREMMLING      CLOUDY     3   0  85 CALM      30.54F
LEADVILLE      CLOUDY    15  11  83 NE6       30.47S WCI   6
MONARCH PASS   CLOUDY    16  12  86 MISG      30.57F
SALIDA         NOT AVBL
SUNLIGHT       CLOUDY    25  18  74 NW6         N/A  WCI  18
WILKERSON PASS CLOUDY    28  -2  26 NW14G24   30.44F WCI  17
$$

COZ069>075-090800-
...SAN LUIS VALLEY/SANGRE DE CRISTO MOUNTAINS...

CITY           SKY/WX    TMP DP  RH WIND       PRES   REMARKS
ALAMOSA        CLOUDY    19  15  84 CALM      30.43R
LA VETA PASS   CLOUDY    28  14  54 S7        30.43S WCI  21
SAGUACHE       CLOUDY    32  19  59 NW14G20   30.44F WCI  22
$$

COZ035-036-038>040-090800-
...NORTHERN COLORADO FRONT RANGE...

CITY           SKY/WX    TMP DP  RH WIND       PRES   REMARKS
DENVER INTL AP CLOUDY    27  19  72 S10       30.30S WCI  17
DMNS CITY PARK   N/A     30  22  70 SE6G12    30.31S WCI  24
AURORA         PTCLDY    30  22  72 S10       30.31S WCI  21
FRONT RANGE AP   N/A     27  19  74 S10       30.31S WCI  17
ERIE MUNI ARPT CLOUDY    29  22  76 CALM      30.30S
BOULDER MUN AP CLOUDY    32  25  74 SW5       30.30R WCI  27
CENTENNIAL     CLOUDY    31  22  69 SE8       30.30F WCI  23
BROOMFIELD     CLOUDY    37  23  56 SE8       30.30F
FORT COLLINS   CLOUDY    27  21  80 CALM      30.31S
LONGMONT       CLOUDY    26  20  79 CALM      30.32S
$$

COZ041-046-047-076>085-087-088-090800-
...PIKES PEAK/PALMER DIVIDE AND SOUTHERN FOOTHILLS...

CITY           SKY/WX    TMP DP  RH WIND       PRES   REMARKS
COLO. SPRINGS  CLOUDY    25  17  72 CALM      30.34F
A. F. ACADEMY  CLOUDY    17  15  88 N9        30.33F WCI   6
SCHRIEVER AFB  NOT AVBL
ELLICOTT       NOT AVBL
FALCON         NOT AVBL
FORT CARSON    CLOUDY    25  20  79 NW10      30.32F WCI  15
LIMON          CLOUDY    26  18  71 W12       30.32R WCI  16
MONUMENT HILL  CLOUDY    25  18  74 SW8       30.33F WCI  16
TRINIDAD       CLOUDY    28  19  69 W8        30.36S WCI  20
$$

COZ042>045-048>051-090-091-090800-
...NORTHEAST COLORADO...

CITY           SKY/WX    TMP DP  RH WIND       PRES   REMARKS
GREELEY ARPT   CLOUDY    21  18  86 CALM      30.32S
AKRON          CLEAR     34  25  69 NW17      30.26S WCI  23
BURLINGTON     CLEAR     30  22  72 NW14      30.26F WCI  19
WRAY           CLEAR     35  28  74 W13       30.24F WCI  27
STERLING       CLEAR     36  28  75 NW16      30.26S
HOLYOKE        CLEAR     37  28  70 W15G22    30.22F
FORT MORGAN    CLEAR     34  23  64 NW17      30.30S WCI  24
$$

COZ086-089-092>099-090800-
...SOUTHEAST COLORADO...

CITY           SKY/WX    TMP DP  RH WIND       PRES   REMARKS
PUEBLO         CLOUDY    25  21  85 CALM      30.36F
LA JUNTA       CLOUDY    32  24  72 W10       30.34F WCI  24
LAMAR          CLEAR     31  25  78 W10       30.31F WCI  22
SPRINGFIELD      N/A     30  22  72 NW12      30.31F WCI  20
$$




USA.gov is the U.S. government's official web portal to all federal, state and local government web resources and services.